This is the latest recevied weather packets stored in our database for station/object KG5MMT-15. If no packets are shown the sender has not sent any weather packets the latest 1 day(s).
| Time | Temp. | Humidity | Pressure | Rain* | Wind** | Luminosity | Snow |
|---|---|---|---|---|---|---|---|
| 1778074035 | 7.78° C | 55% | 0 hPa | 0 mm | - | - | - |
| 1778073735 | 7.78° C | 54% | 0 hPa | 0 mm | - | - | - |
| 1778073435 | 7.22° C | 56% | 0 hPa | 0 mm | - | - | - |
| 1778073135 | 7.22° C | 57% | 0 hPa | 0 mm | - | - | - |
| 1778072835 | 6.67° C | 60% | 0 hPa | 0 mm | - | - | - |
| 1778072235 | 6.11° C | 59% | 0 hPa | 0 mm | - | - | - |
| 1778071935 | 6.11° C | 60% | 0 hPa | 0 mm | - | - | - |
| 1778071635 | 6.11° C | 61% | 0 hPa | 0 mm | - | - | - |
| 1778071335 | 5.56° C | 63% | 0 hPa | 0 mm | - | - | - |
| 1778071035 | 5.56° C | 63% | 0 hPa | 0 mm | - | - | - |
| 1778070435 | 5° C | 63% | 0 hPa | 0 mm | - | - | - |
| 1778070135 | 5.56° C | 64% | 0 hPa | 0 mm | - | - | - |
| 1778069835 | 5.56° C | 63% | 0 hPa | 0 mm | - | - | - |
| 1778069535 | 5° C | 63% | 0 hPa | 0 mm | - | - | - |
| 1778069235 | 5.56° C | 62% | 0 hPa | 0 mm | - | - | - |
| 1778068635 | 5.56° C | 60% | 0 hPa | 0 mm | - | - | - |
| 1778068035 | 5.56° C | 60% | 0 hPa | 0 mm | - | - | - |
| 1778067735 | 5.56° C | 60% | 0 hPa | 0 mm | - | - | - |
| 1778067135 | 6.11° C | 60% | 0 hPa | 0 mm | - | - | - |
| 1778066835 | 6.11° C | 59% | 0 hPa | 0 mm | - | - | - |
| 1778066535 | 6.11° C | 58% | 0 hPa | 0 mm | - | - | - |
| 1778066235 | 5.56° C | 59% | 0 hPa | 0 mm | - | - | - |
| 1778065935 | 6.11° C | 59% | 0 hPa | 0 mm | - | - | - |
| 1778064735 | 6.11° C | 59% | 0 hPa | 0 mm | - | - | - |
| 1778063835 | 6.11° C | 60% | 0 hPa | 0 mm | - | - | - |
* Rain latest hour (hover to see other rain measurements)
** Current wind speed in m/s (hover to see current wind gust speed)